Theta_e
319 320 321 323 325 325 326 326 327 327 327 328 328 327 326 326 325 325 325 326 325 325 326 327 326 325 325 325 324 324 324 324 325 325 325 326 326 327 324 319 315 314 318 321 323 326 325 322 320 320 321 322 321 321 320 321 321 321 321 318 312 307 304 302 300 298 297 296 296 296 296 296 295 295
319 319 320 321 322 322 324 325 326 327 327 327 327 327 326 326 326 326 326 326 325 325 325 326 326 325 325 325 324 324 324 324 325 324 325 325 326 326 324 319 318 319 321 322 323 324 325 323 321 320 321 322 321 321 320 320 321 321 321 319 315 309 304 302 300 298 297 297 296 296 296 295 295 295
317 319 319 320 320 320 321 323 325 326 326 326 326 326 326 326 325 325 325 326 325 324 324 326 326 325 325 325 324 324 324 325 325 324 324 325 324 324 323 321 320 322 323 322 322 324 325 324 321 321 322 322 321 321 320 320 320 321 321 320 318 312 305 302 300 298 297 296 296 296 296 295 295 295
315 318 319 320 321 320 320 320 322 323 324 325 326 326 326 327 325 324 325 325 325 323 324 325 325 326 326 326 325 325 325 326 326 325 325 325 323 323 323 322 321 323 324 323 323 326 326 323 321 321 321 322 322 321 320 320 320 321 320 320 319 313 307 303 300 297 297 296 296 295 295 295 295 294
314 316 319 320 321 322 321 320 320 320 322 324 326 326 326 327 327 325 325 326 325 324 323 325 325 326 327 328 327 325 326 326 326 326 325 324 323 322 322 321 322 323 323 324 325 326 325 323 322 321 321 322 322 321 321 321 321 321 320 320 319 313 307 303 300 298 296 296 295 295 295 295 294 294
313 315 317 319 320 321 322 322 321 320 320 322 325 325 325 326 327 326 326 326 326 324 323 325 326 326 326 328 328 327 326 326 326 325 325 325 324 322 321 322 324 323 323 325 326 325 324 323 322 321 321 321 322 322 321 321 321 321 320 320 318 314 308 303 299 297 296 295 295 295 295 295 294 294
311 313 315 317 319 320 321 322 322 321 321 321 323 324 325 326 327 327 327 327 326 325 324 324 325 327 326 326 327 327 326 325 325 324 324 324 323 322 322 323 324 323 324 325 324 323 323 323 322 322 320 320 321 321 321 321 321 320 319 320 318 314 308 303 299 297 296 295 295 295 294 294 294 294
309 311 312 314 317 320 320 321 321 322 322 322 322 324 325 326 327 327 327 327 326 325 324 322 322 324 326 326 326 326 325 324 324 324 323 324 322 321 323 324 322 322 323 324 324 323 323 323 322 322 320 319 319 320 320 321 321 320 319 319 317 313 307 302 299 296 295 295 295 294 294 294 294 294
308 310 311 313 314 317 319 320 321 322 322 322 322 322 323 325 327 327 327 327 327 326 325 323 321 323 326 326 325 325 324 324 323 322 322 322 322 322 324 324 323 323 323 324 324 323 322 322 322 321 320 319 318 318 319 320 321 320 319 318 316 313 307 302 298 296 295 295 294 294 294 294 293 293
307 308 310 312 313 314 316 318 320 321 322 322 322 322 322 324 325 326 327 327 327 327 325 323 322 323 326 326 325 323 323 323 323 322 321 321 322 323 324 324 324 324 323 323 324 323 322 322 321 320 320 319 318 318 318 320 320 319 318 317 316 312 307 302 298 296 295 294 294 294 294 294 293 293
307 307 308 310 311 313 314 316 317 319 321 321 322 322 322 322 324 325 326 326 327 328 327 325 322 322 324 325 324 323 322 321 322 322 321 321 322 323 325 325 324 324 323 323 323 322 322 322 320 320 319 318 317 317 318 319 320 319 318 317 315 312 306 301 297 295 295 294 294 294 293 293 293 293
307 307 307 308 309 311 312 314 315 317 318 320 321 322 322 322 323 323 324 325 327 328 328 326 325 323 323 324 323 322 321 320 320 321 321 322 323 323 324 324 324 324 324 324 323 322 322 321 319 319 319 318 317 317 318 318 319 319 317 316 315 311 304 299 296 295 294 294 293 293 293 293 293 293
305 306 307 308 308 309 310 312 314 315 316 318 319 320 322 322 323 323 323 325 325 327 328 328 327 324 324 324 323 321 322 321 321 322 321 321 322 322 323 324 324 324 325 324 324 323 323 322 321 321 321 320 318 318 318 318 319 318 316 316 314 309 302 298 296 295 294 294 293 293 293 293 293 293
304 304 305 306 307 308 309 310 312 314 315 316 316 318 319 321 322 323 324 325 326 326 327 327 327 327 325 324 323 321 321 321 322 322 320 319 321 321 321 322 322 323 324 324 324 324 323 322 321 321 321 321 320 319 319 318 317 317 315 314 312 306 300 297 295 294 294 293 293 293 293 293 293 292
303 303 304 304 305 307 308 309 310 312 314 314 315 316 316 318 321 322 322 323 324 326 326 326 327 328 326 324 322 321 320 319 320 321 320 320 321 321 320 320 320 321 323 323 322 322 322 321 321 321 322 321 321 320 318 316 315 314 314 312 309 303 298 296 294 294 293 293 293 293 293 293 293 292
301 301 302 303 303 305 306 307 309 310 312 313 314 315 316 316 319 321 322 321 322 323 325 326 327 327 326 324 321 321 321 319 319 319 319 320 322 322 321 320 320 320 321 322 322 321 321 320 321 321 322 321 320 318 316 314 314 314 313 310 306 300 296 295 294 293 293 293 293 293 293 293 292 292
300 300 300 301 301 303 304 305 307 308 310 311 313 314 315 316 317 319 320 321 321 321 322 325 326 326 325 325 323 321 322 321 319 317 317 319 321 322 322 321 320 319 318 319 321 321 321 320 320 321 321 320 318 316 314 314 313 312 311 309 304 298 295 294 293 293 293 293 293 293 293 293 292 292
300 300 300 300 300 301 302 303 306 307 309 310 312 313 314 315 316 317 317 319 321 321 321 322 324 325 325 326 324 322 321 322 321 320 320 321 321 322 322 321 320 319 318 318 318 319 321 320 319 319 319 318 317 315 313 313 312 310 309 307 301 295 294 293 293 293 293 293 293 293 292 292 292 291
299 299 299 299 299 300 300 301 303 306 308 310 312 314 315 315 316 316 316 317 319 321 321 321 322 323 324 326 325 323 322 322 322 322 322 322 322 322 320 318 317 318 318 318 317 318 319 319 318 318 317 315 315 315 312 311 311 311 309 305 298 294 293 293 293 293 292 292 292 292 292 291 291 290
298 298 298 299 299 299 299 300 301 304 307 309 312 314 316 317 317 317 316 315 317 319 321 321 321 321 322 324 324 323 322 322 320 319 319 320 320 320 317 315 316 318 317 317 317 316 318 318 316 316 314 312 315 316 313 311 311 311 308 302 295 293 293 292 292 292 292 292 292 292 291 291 290 290
297 297 298 298 299 299 299 299 299 301 304 308 311 313 314 316 317 317 317 317 318 318 318 319 320 320 321 323 323 322 321 321 319 316 316 318 319 319 316 314 316 319 318 318 316 315 316 317 315 313 310 310 313 314 312 311 310 308 305 298 294 292 292 292 292 292 292 292 291 291 291 290 290 290
296 297 297 298 298 298 299 299 299 299 301 304 309 312 313 314 316 318 318 319 320 319 319 319 319 320 320 321 322 322 321 321 319 317 318 319 320 318 317 317 318 317 316 317 315 312 313 315 314 310 307 307 309 310 309 307 305 304 302 297 293 292 292 291 292 292 292 291 291 291 291 291 291 290
296 296 297 297 297 298 298 298 299 299 299 301 305 310 311 312 315 317 318 319 320 321 321 321 320 319 320 320 321 323 323 322 321 319 319 320 321 320 320 320 318 315 315 316 314 310 311 314 312 308 307 305 304 303 303 302 300 301 300 296 292 292 292 291 292 292 291 291 292 292 292 292 291 291
296 296 296 297 297 297 298 298 298 298 299 300 303 307 310 311 313 316 318 319 320 320 321 322 321 320 319 320 320 322 323 323 321 320 319 320 321 321 321 321 321 319 319 320 316 310 310 312 310 307 308 308 305 303 302 301 300 299 297 295 293 292 292 292 292 292 292 292 293 293 293 292 292 291
296 296 296 296 297 297 298 298 298 298 299 299 300 304 309 312 313 315 317 318 319 320 320 322 322 321 320 319 320 321 322 322 321 321 320 319 319 320 321 322 322 320 320 319 316 311 309 310 309 306 305 306 306 305 302 300 299 298 296 295 294 293 293 293 292 292 292 293 293 293 293 292 292 292
296 296 296 296 297 297 297 298 298 299 299 299 300 302 307 312 314 314 315 316 318 320 320 321 323 322 320 319 320 321 323 323 322 321 320 319 318 318 320 321 321 321 320 318 316 312 310 310 308 306 303 302 302 303 300 298 297 297 296 295 294 294 293 293 292 293 293 294 294 293 293 293 292 292
295 296 296 296 296 297 297 298 298 299 299 300 300 302 305 310 314 313 312 313 317 320 321 321 322 322 321 320 320 322 323 322 321 320 319 317 317 317 318 319 319 319 319 317 315 314 313 312 308 305 303 301 299 299 299 298 297 296 296 295 295 295 294 293 293 293 293 293 293 293 293 293 292 292
295 295 296 296 296 296 297 297 298 299 300 300 302 303 305 308 312 312 310 312 315 319 320 321 321 322 322 321 321 322 323 322 321 320 318 317 317 317 318 318 317 316 315 315 314 313 313 312 308 304 303 301 299 298 298 298 297 296 296 295 295 294 294 294 294 294 293 293 293 293 293 292 292 292
295 296 296 297 297 297 297 298 298 299 300 301 303 304 306 307 310 311 310 311 314 318 320 320 321 321 321 321 321 322 322 322 322 321 319 317 317 316 315 315 314 313 312 312 311 311 311 310 307 304 302 301 299 298 298 297 297 296 296 295 295 294 294 294 294 294 293 293 293 293 292 291 292 293
297 297 298 298 298 298 298 298 299 300 301 302 303 305 307 307 309 311 311 311 314 318 319 320 320 320 320 320 320 321 321 322 321 321 319 318 316 314 314 313 311 310 310 310 309 309 308 307 304 303 301 299 298 298 297 297 297 296 296 295 294 294 294 294 294 293 293 293 293 292 291 292 293 293
299 299 299 299 299 299 299 299 299 300 302 303 304 306 308 308 308 310 311 312 314 317 319 319 319 319 319 319 319 319 320 320 320 319 318 317 315 314 312 311 310 309 310 308 306 305 304 303 302 301 299 297 297 297 297 296 296 296 295 295 295 294 294 294 294 293 293 293 292 291 291 293 293 292
299 300 300 301 300 299 299 299 299 300 302 304 306 309 310 310 309 310 312 313 314 316 318 319 319 319 319 319 318 319 319 319 318 317 316 314 314 312 309 309 311 311 308 305 303 302 301 301 301 299 297 297 297 296 296 296 295 295 295 295 294 294 293 293 293 293 293 292 290 290 291 292 292 292
300 300 301 302 301 300 300 299 300 301 302 304 308 312 312 311 310 311 312 313 313 314 317 319 318 318 318 318 317 317 317 316 315 314 313 312 311 309 307 308 312 311 306 301 300 300 300 300 299 297 296 296 296 296 296 295 295 295 295 294 294 293 293 293 293 293 293 291 289 290 291 291 291 292
301 301 302 302 301 301 301 301 301 302 303 304 309 313 314 313 311 312 313 314 313 315 317 318 317 317 316 316 316 315 314 313 311 310 309 310 310 308 307 307 308 306 302 299 298 299 299 298 297 296 296 295 294 294 294 293 293 294 294 294 293 293 293 293 293 293 291 290 290 291 291 291 291 292
301 302 303 303 302 302 302 302 303 304 304 306 310 313 314 313 313 313 314 314 314 316 317 317 316 316 315 315 315 313 312 311 309 307 306 306 306 306 306 306 305 303 301 300 298 297 296 295 294 294 294 293 292 292 292 292 293 294 294 293 293 293 293 293 292 290 289 290 291 291 291 291 291 290
301 302 303 304 304 304 304 304 305 305 306 307 310 312 314 314 314 314 314 315 315 316 316 316 315 315 315 314 313 311 309 309 307 305 303 303 303 303 304 304 303 300 298 297 295 294 293 293 292 292 291 291 291 291 292 293 294 294 294 293 293 292 292 291 290 289 289 290 291 290 290 290 290 289
300 301 302 303 304 305 305 305 305 306 308 309 311 312 313 314 314 313 314 315 315 315 315 315 315 315 314 312 310 307 306 306 306 303 301 301 301 301 301 299 297 295 294 293 293 293 293 292 291 291 291 291 290 291 291 292 292 292 292 291 290 290 290 289 288 288 290 290 290 290 289 289 288 288
300 301 301 302 302 303 304 304 306 307 309 310 310 310 311 312 312 312 312 313 315 315 314 314 314 314 313 311 308 306 303 303 302 301 300 300 299 298 296 294 292 292 292 292 292 292 291 290 290 291 291 292 291 291 291 291 291 291 291 289 289 288 288 288 288 289 289 289 289 288 288 288 288 288
300 300 301 302 302 302 303 304 305 306 308 309 310 310 311 312 312 312 311 312 313 314 314 313 313 313 311 308 306 304 302 301 300 299 298 297 295 293 291 290 290 291 292 291 290 290 291 291 292 292 293 293 294 293 293 293 292 291 290 288 288 288 288 288 288 289 289 289 288 288 287 288 288 287
300 300 301 301 302 302 302 303 304 305 306 307 308 309 310 311 312 312 312 311 311 312 312 311 310 309 307 304 303 302 300 299 299 297 294 292 291 290 290 291 291 292 292 291 291 291 292 292 293 293 293 294 294 294 293 293 292 290 289 288 288 288 288 288 288 288 288 288 287 287 287 287 287 287
298 299 300 300 301 301 301 302 302 303 303 304 305 306 308 308 309 310 311 310 309 309 309 308 306 304 303 301 300 299 297 295 294 293 291 291 291 291 292 293 293 292 292 292 291 291 292 292 292 293 293 293 293 293 292 291 291 290 290 289 289 288 288 288 288 288 288 288 288 288 288 287 287 287
296 297 298 298 299 299 299 300 300 301 301 302 302 303 305 305 305 306 307 307 307 306 306 304 302 301 300 298 297 296 294 292 292 291 291 291 291 291 292 293 293 293 293 292 291 291 292 292 292 292 292 292 292 292 291 292 292 291 290 290 289 288 288 288 288 288 288 288 288 289 288 287 287 287
294 295 295 296 296 297 297 297 298 299 299 300 300 300 301 302 302 302 303 303 302 302 301 300 299 298 296 295 293 292 292 291 291 291 291 291 291 290 291 292 293 293 292 292 291 291 292 292 292 292 291 291 291 291 291 291 291 290 290 289 288 288 288 288 288 289 290 290 289 289 288 288 288 288
293 294 294 294 295 295 296 296 297 297 297 298 298 298 298 298 298 299 299 299 299 298 297 296 295 294 293 292 291 291 291 291 291 291 290 290 291 291 291 292 292 292 292 291 292 292 292 292 292 292 292 292 292 291 290 290 290 290 290 289 288 288 289 289 288 289 290 290 290 289 289 288 288 288
292 292 293 293 294 294 294 295 295 296 296 296 296 296 296 296 295 295 295 295 295 295 294 293 292 291 291 290 290 291 291 291 291 291 291 291 292 292 293 292 291 291 291 292 293 293 293 292 292 292 292 291 290 290 290 289 289 289 288 288 288 289 289 288 289 289 290 290 290 289 289 289 288 288
Wind_Speed
26 28 29 30 29 29 30 31 32 32 34 38 41 44 43 39 35 31 30 33 33 28 24 24 23 24 29 31 31 30 30 30 28 28 29 30 29 26 24 26 28 29 28 27 27 27 25 21 19 17 15 12 9 8 7 7 8 9 11 13 13 13 12 12 13 14 14 14 15 15 15 14 14 13
26 26 28 30 31 30 29 30 32 33 33 35 38 41 43 42 40 36 33 34 35 30 27 24 21 22 30 34 34 34 33 33 33 31 31 31 30 28 27 27 29 29 29 28 27 27 25 22 20 18 15 12 10 9 8 8 9 10 11 13 14 14 13 12 13 14 14 14 14 15 15 15 14 14
28 26 25 27 31 33 31 30 31 33 35 37 37 38 40 42 43 41 38 37 37 33 29 27 21 18 28 35 35 34 34 34 34 33 32 32 30 29 29 30 29 29 29 28 27 27 25 23 21 19 16 13 12 11 10 10 11 11 12 13 15 16 15 13 13 13 13 14 14 14 15 15 15 14
27 27 25 25 26 30 33 33 32 32 34 37 38 38 38 40 43 44 41 40 42 37 31 30 25 18 24 34 37 36 35 34 35 35 33 32 30 29 30 31 30 30 31 30 29 28 26 24 22 21 18 16 15 13 11 11 12 13 13 14 15 16 16 14 13 13 13 13 14 14 15 15 15 14
27 26 26 26 25 25 29 33 35 34 34 35 38 38 37 37 40 43 42 42 45 42 36 35 32 24 22 29 35 37 37 37 37 35 33 31 30 30 31 31 31 31 32 32 32 31 28 25 24 23 21 19 17 15 12 12 14 15 14 14 15 16 16 15 14 14 14 14 13 14 15 15 14 14
29 28 28 28 27 25 27 29 32 35 35 35 36 36 36 37 37 39 41 42 43 45 42 40 37 32 26 26 32 36 37 38 36 34 33 31 30 31 32 32 33 32 33 34 34 31 28 26 25 25 23 21 19 16 14 14 16 17 15 15 16 17 17 16 15 14 14 14 14 14 14 15 14 14
31 32 32 31 28 26 28 28 28 32 34 35 36 35 36 38 38 38 40 42 43 44 43 43 40 36 30 28 32 35 35 36 33 31 31 32 31 32 32 33 34 34 35 35 31 28 27 27 27 27 26 23 21 19 16 15 17 18 16 16 17 17 17 16 15 15 14 14 14 14 14 14 14 14
30 32 34 35 32 29 29 29 28 29 32 34 36 35 36 37 38 37 38 39 42 43 42 43 43 41 35 31 34 35 34 33 31 29 31 32 32 33 33 33 34 35 37 35 30 28 28 29 29 29 27 25 23 21 19 17 18 18 17 17 17 18 18 17 16 15 15 14 14 14 14 14 14 14
29 29 31 34 35 35 34 32 29 28 29 32 35 36 37 38 37 37 37 37 39 42 44 43 42 41 39 33 32 33 34 33 31 28 30 31 32 34 35 34 35 36 36 35 33 31 31 31 30 30 28 26 25 24 21 19 19 19 18 17 18 18 18 17 17 16 15 15 15 14 14 14 14 14
31 30 30 32 35 37 38 37 35 31 27 29 33 36 37 38 37 37 38 39 39 40 43 44 41 40 39 35 35 35 35 37 36 32 30 32 34 36 37 37 37 37 36 36 35 34 34 33 33 32 30 29 28 26 23 21 20 20 18 18 18 19 19 18 17 16 15 15 15 14 14 14 14 14
32 32 32 33 35 37 39 40 39 37 33 30 30 32 35 37 38 37 38 39 38 37 39 42 42 41 39 37 39 40 36 37 37 35 33 35 36 37 39 39 40 39 38 38 37 36 35 35 34 33 32 31 29 27 25 24 22 20 19 18 19 19 19 18 17 16 16 15 15 14 14 14 14 14
32 34 35 36 37 38 39 40 41 41 40 36 33 31 31 34 37 39 40 40 39 37 38 39 40 41 40 39 40 42 40 40 39 38 38 35 32 34 39 41 42 42 41 41 39 38 37 37 36 35 33 32 31 30 28 26 24 22 20 19 19 20 19 18 17 16 16 16 15 14 14 14 14 15
31 33 36 38 38 39 40 41 42 43 43 43 41 38 33 32 34 36 39 42 43 41 38 37 39 40 41 42 43 45 47 48 46 44 41 36 32 34 39 43 44 43 42 42 41 40 39 38 38 37 36 34 33 32 30 28 25 22 20 19 20 20 19 18 17 17 16 15 14 14 14 14 15 15
33 34 35 37 38 39 40 42 43 45 45 46 47 45 42 38 34 32 34 38 42 42 41 40 41 42 45 46 47 49 49 49 48 47 44 40 37 38 40 43 45 44 43 43 42 41 40 40 40 39 37 35 33 32 30 29 26 22 20 20 20 19 18 17 17 17 16 15 14 14 14 15 15 15
36 36 36 37 38 39 40 40 42 45 47 48 48 48 48 47 42 37 35 34 34 38 42 43 42 45 48 48 49 49 48 47 47 48 46 43 41 42 42 44 45 45 46 45 43 42 41 39 38 38 36 34 33 32 31 29 25 22 21 20 19 18 18 17 17 16 15 14 14 14 14 15 16 16
38 37 38 38 39 39 39 39 39 42 45 47 48 48 48 50 48 45 42 39 35 35 39 42 43 44 45 46 48 50 49 49 48 47 46 45 44 43 43 43 43 44 46 47 45 42 40 39 38 38 36 35 33 32 31 29 25 23 21 19 18 18 17 17 16 15 14 13 13 14 15 15 16 16
42 39 40 40 40 39 38 37 38 39 40 42 45 46 47 49 51 51 49 47 44 40 38 39 43 46 45 46 49 52 52 51 50 48 48 46 45 44 42 41 41 41 43 45 44 42 41 41 40 39 37 36 34 32 31 29 26 23 21 19 18 18 17 16 15 14 13 13 13 14 15 16 16 16
45 43 42 41 42 41 39 38 37 36 36 37 37 40 42 45 48 51 52 52 52 49 44 41 43 44 45 46 48 50 53 54 53 53 52 47 43 43 40 39 40 41 40 40 41 42 42 42 41 40 39 36 34 31 30 29 26 23 20 18 18 17 15 14 14 13 12 13 14 14 15 16 16 16
48 46 45 45 45 44 42 41 38 35 33 32 32 35 38 40 42 44 48 52 55 55 51 47 44 42 42 45 47 49 51 55 57 57 52 44 39 39 39 40 42 41 40 39 40 40 40 40 41 40 39 36 32 31 30 28 26 23 19 17 16 14 14 14 13 12 12 13 14 14 15 16 16 15
49 49 48 48 47 46 46 45 41 39 36 33 32 34 35 36 39 41 43 45 50 56 56 53 49 43 40 41 44 46 49 53 55 53 46 40 39 40 41 42 42 41 40 39 38 38 38 38 38 37 36 33 30 30 30 28 25 22 18 15 14 13 13 13 12 11 12 13 13 14 15 15 15 15
48 48 47 45 45 46 47 45 42 41 40 38 38 38 37 36 37 41 43 41 42 46 51 53 52 47 42 39 39 43 47 51 53 51 46 43 43 43 43 43 43 42 41 39 38 39 38 36 34 31 30 29 29 29 29 27 23 18 15 14 14 13 13 11 10 11 12 12 13 14 14 14 14 14
48 48 46 45 45 46 46 44 42 41 40 41 42 42 40 39 37 38 41 41 39 39 40 43 47 48 46 41 39 42 46 50 53 52 48 46 46 46 45 45 43 40 39 39 38 38 37 35 31 27 26 26 27 27 26 24 20 16 14 15 14 13 12 10 10 11 11 12 12 13 12 12 13 13
47 47 47 46 47 47 46 44 43 42 41 43 45 44 41 41 39 36 38 40 40 38 37 36 40 45 47 43 40 41 43 48 51 50 50 49 48 48 48 45 42 39 39 39 38 37 36 34 30 27 27 28 27 25 24 23 19 15 14 14 14 12 11 10 10 10 10 10 11 11 11 11 12 14
47 47 47 46 47 47 47 45 44 44 43 44 46 46 44 42 38 33 34 38 41 40 38 38 39 42 45 43 40 39 41 46 48 47 48 49 48 48 48 45 42 40 37 35 36 37 35 32 29 28 28 28 27 25 25 23 19 15 13 12 12 11 11 10 9 8 9 9 9 10 11 12 13 14
47 48 48 48 47 46 45 45 44 44 44 44 45 49 51 46 40 33 29 31 37 40 40 40 40 41 44 43 41 39 40 45 48 48 47 48 47 47 45 41 39 39 36 32 31 34 35 32 28 29 29 27 24 22 21 20 17 13 11 11 11 11 10 8 7 7 8 8 8 10 11 12 12 13
48 49 50 50 48 45 45 45 44 43 43 43 43 48 53 49 42 38 30 26 30 37 39 40 40 40 41 43 42 40 42 47 49 48 47 47 46 46 42 36 33 34 33 28 26 31 34 31 28 30 32 28 22 17 16 16 15 13 11 10 9 8 7 6 6 6 6 7 9 10 11 11 11 11
48 50 51 50 48 46 45 44 43 42 41 41 39 41 49 49 44 40 34 28 29 35 38 40 40 38 38 40 41 41 44 47 47 47 47 47 46 44 41 37 33 30 27 23 22 26 29 28 28 32 32 27 21 17 15 14 14 13 11 8 5 5 5 6 6 5 5 7 9 10 10 11 10 10
48 49 50 49 47 46 44 43 42 40 39 39 36 34 40 48 47 42 36 31 32 35 37 38 38 35 35 37 38 40 42 42 44 46 47 47 45 43 42 39 37 32 25 20 21 24 26 28 30 31 29 23 18 16 14 12 12 11 9 6 5 5 6 6 7 6 6 7 9 9 11 11 9 9
45 46 45 44 43 43 42 41 41 39 38 38 36 31 32 42 49 46 39 34 35 38 37 36 35 32 32 35 36 37 39 40 42 45 45 45 44 43 41 38 36 31 24 19 21 25 28 29 29 27 24 20 15 12 11 12 13 11 9 9 8 7 8 9 9 7 6 8 10 12 11 9 6 7
40 41 40 40 40 40 41 41 41 40 37 36 35 31 30 37 46 47 42 36 37 40 39 36 33 31 32 34 35 35 37 39 42 44 44 44 44 42 40 37 33 27 21 20 24 28 30 29 27 24 21 20 17 13 12 14 15 13 12 12 11 8 10 12 9 7 9 11 12 11 8 5 4 5
35 37 39 40 39 39 41 41 41 40 38 36 36 33 32 35 41 45 43 38 38 41 40 36 32 31 32 34 35 36 37 39 41 43 43 44 44 42 41 38 33 26 22 25 30 32 31 29 25 22 21 21 21 19 16 16 15 15 16 16 13 10 9 9 8 9 11 11 11 8 4 3 3 4
30 32 34 36 36 37 40 41 41 42 40 36 33 32 32 34 38 42 41 37 39 43 41 35 32 32 33 34 36 37 38 38 41 43 43 44 44 42 40 38 32 28 30 34 35 34 31 27 24 23 24 25 25 23 20 16 13 13 15 15 13 10 9 8 9 11 12 12 10 5 2 3 3 2
26 26 27 30 32 34 37 38 39 40 38 33 29 28 29 33 37 39 38 39 43 44 39 33 31 33 34 35 36 38 38 39 41 42 42 43 42 39 37 35 32 33 37 39 38 35 31 27 25 26 27 27 25 23 21 16 12 10 10 11 9 8 8 10 12 13 12 11 7 3 2 2 2 2
21 21 21 25 29 30 31 33 34 35 33 32 30 28 28 32 37 37 37 40 44 42 35 31 31 32 34 35 37 39 40 40 40 40 39 39 39 38 35 34 34 37 40 39 36 33 30 27 25 27 27 25 22 20 19 16 14 12 11 10 8 8 10 12 13 12 10 6 3 3 3 2 1 4
16 16 18 21 25 26 28 29 29 29 29 31 31 30 31 34 38 39 39 41 42 40 35 33 31 30 32 35 38 40 41 41 40 38 37 36 36 36 34 34 36 38 37 35 32 28 26 24 23 24 23 21 18 17 16 16 15 16 15 13 11 12 13 13 11 9 6 2 2 3 3 3 4 7
11 12 15 18 21 23 25 26 25 26 28 30 32 33 36 39 40 41 41 41 39 37 34 32 30 29 31 36 39 41 41 41 40 39 37 36 36 34 33 34 35 34 32 29 27 25 22 21 20 21 22 19 17 17 18 17 17 16 15 14 13 13 13 10 7 4 2 2 2 3 4 5 7 8
10 12 15 18 21 23 24 24 24 25 26 26 29 34 39 42 43 43 43 40 37 33 31 30 29 28 32 37 40 41 41 40 40 40 38 36 35 34 33 34 33 32 29 26 23 21 21 21 20 20 20 19 19 19 19 19 17 14 11 11 11 10 9 7 5 4 4 4 4 4 5 6 7 8
8 11 14 17 20 22 24 24 26 27 25 24 27 33 37 39 39 41 42 40 37 33 32 31 30 31 35 39 40 41 41 40 40 39 37 35 34 33 34 35 34 31 28 24 22 20 20 19 18 16 16 17 19 19 19 18 16 12 9 8 8 7 6 6 5 5 5 4 4 4 5 6 7 9
5 7 10 14 17 20 23 24 26 28 27 26 29 33 34 35 35 36 38 39 38 35 35 35 34 35 38 40 41 42 42 41 39 38 36 35 34 35 37 37 35 32 29 27 25 23 21 19 18 17 16 15 15 14 14 13 11 9 6 6 5 4 4 4 3 3 3 3 3 3 4 5 7 8
6 7 8 11 13 16 19 21 23 25 27 28 31 33 33 33 34 35 36 37 38 37 37 37 37 39 40 40 41 41 40 39 39 39 38 37 37 37 38 36 34 32 31 30 28 26 24 23 21 19 17 15 14 14 11 9 8 7 6 5 3 2 1 1 1 1 1 2 3 4 6 8 9 10
7 7 7 9 11 14 17 19 21 23 25 28 30 32 32 33 34 35 35 35 36 36 36 37 38 39 40 40 40 40 40 40 41 41 41 39 38 37 35 33 32 31 31 31 30 28 26 23 21 20 16 13 12 12 10 8 7 7 5 3 1 1 1 2 2 1 2 2 4 7 10 12 12 13
6 4 4 6 8 10 14 17 19 20 23 25 27 29 31 32 34 35 35 35 36 36 36 37 38 38 38 39 40 41 41 42 42 41 39 39 39 37 33 30 31 31 30 31 30 27 23 21 20 18 15 12 11 10 8 7 7 6 4 3 4 4 4 3 3 4 4 5 7 11 14 14 15 16
5 3 1 2 4 7 10 13 16 18 21 23 25 27 29 32 33 34 35 36 36 36 37 37 38 38 39 40 41 41 42 43 42 41 40 39 39 36 32 30 30 29 28 28 27 24 21 20 18 16 16 15 14 13 12 10 8 5 3 3 5 5 5 5 5 6 8 9 9 13 15 16 16 17
4 2 2 3 4 7 10 13 15 18 20 22 24 26 28 31 32 33 34 35 35 36 38 39 40 41 42 42 42 42 43 43 42 41 40 38 36 34 32 31 29 28 28 28 27 24 21 19 18 17 17 16 15 15 14 12 9 6 4 2 4 4 5 5 7 8 9 9 10 13 16 16 16 16
5 4 4 5 7 9 11 13 16 18 21 24 26 27 29 30 32 32 33 35 36 38 40 41 42 42 43 43 43 43 42 42 41 40 38 36 34 32 31 30 30 30 29 28 26 24 21 18 17 15 13 12 12 13 12 10 7 6 5 5 6 6 5 6 7 8 8 8 10 12 14 15 16 16
Wind_Direction
252 256 257 257 256 253 253 252 251 250 249 249 249 248 248 250 250 251 251 250 250 251 247 242 242 235 228 228 224 221 226 227 224 223 223 225 226 225 228 229 228 227 219 214 217 219 219 221 222 222 223 230 243 254 269 282 292 305 311 310 309 310 311 313 312 309 306 305 305 306 309 312 315 316
249 253 254 258 260 258 257 254 250 250 249 249 250 251 251 250 249 247 248 251 251 248 244 243 248 240 227 226 225 224 228 229 226 226 225 225 228 229 232 231 229 228 220 214 219 220 221 223 222 221 223 233 249 258 268 281 290 297 302 306 308 305 304 308 309 307 303 300 300 302 305 308 311 314
247 251 252 256 258 258 258 257 254 251 249 251 252 253 252 251 250 248 246 249 249 246 244 242 243 243 230 224 223 223 225 226 226 228 227 225 226 229 232 231 228 225 220 218 220 220 222 224 222 221 225 238 251 252 259 277 286 290 294 301 305 302 300 304 306 303 300 298 297 299 302 305 309 312
248 251 254 254 256 259 260 258 256 254 251 251 252 253 253 251 250 248 243 245 247 245 245 244 242 241 228 220 221 221 219 220 224 228 228 226 225 226 228 229 226 221 218 218 220 220 223 224 223 223 229 242 248 245 254 271 278 281 285 294 299 298 299 303 304 302 299 297 296 297 300 303 306 309
251 250 253 253 252 256 260 260 258 255 254 253 250 249 251 251 250 247 242 243 247 247 244 245 244 239 225 215 216 218 217 218 222 226 227 225 226 228 226 225 224 220 216 216 218 219 222 224 224 225 231 238 241 241 252 266 273 275 279 287 293 295 298 301 302 301 299 296 294 296 299 301 303 306
252 249 248 249 250 252 255 260 261 258 256 255 252 249 250 251 249 246 243 241 245 248 246 245 243 239 234 224 218 218 219 222 227 230 227 222 223 228 227 224 220 216 215 217 216 214 217 223 226 228 231 233 234 240 250 262 269 272 275 283 290 294 297 299 300 299 298 295 293 294 297 300 302 304
252 251 247 243 244 249 252 255 259 260 258 255 255 254 251 250 248 245 243 242 243 246 246 247 244 240 239 234 226 224 224 228 234 236 231 226 224 227 226 222 217 213 214 217 216 213 217 224 228 230 233 232 233 238 245 256 265 269 274 282 287 292 295 296 298 297 295 293 291 292 296 299 300 302
254 254 253 247 240 240 244 248 253 258 259 255 254 255 252 248 245 242 243 244 244 244 244 246 245 244 244 234 222 223 225 227 235 238 233 228 226 224 222 218 215 213 215 218 220 221 224 227 228 231 233 233 234 237 241 251 261 267 273 279 285 290 293 295 296 294 292 290 288 291 295 297 298 299
259 255 256 254 246 240 240 242 244 249 255 256 254 255 254 250 246 244 245 246 244 242 241 243 243 244 245 235 217 216 219 219 224 228 226 225 223 218 216 215 215 215 217 220 224 227 228 229 230 232 234 236 238 240 242 249 259 265 269 276 283 288 290 293 293 292 290 287 286 289 294 296 296 297
265 258 255 254 252 247 243 242 241 241 246 252 254 254 255 253 248 245 246 246 244 241 239 240 240 240 242 234 218 214 218 218 219 220 217 216 217 215 213 213 214 216 220 223 226 229 230 231 230 232 234 237 239 241 243 248 256 262 268 275 281 285 288 289 290 289 286 283 283 287 292 293 292 293
267 263 258 253 250 249 247 244 243 243 244 248 249 250 253 255 252 247 247 246 244 241 240 238 236 236 238 232 217 210 213 216 220 224 218 210 210 213 215 216 216 217 221 224 228 231 232 231 230 231 233 236 238 241 244 249 254 260 267 274 279 283 285 286 287 286 282 280 282 286 290 290 288 290
269 267 263 257 251 248 247 246 244 244 245 248 248 247 250 255 256 254 253 249 242 239 239 237 235 233 233 230 219 211 210 210 214 225 228 220 215 215 217 219 220 220 220 222 226 229 230 230 230 230 232 235 238 240 243 247 252 258 265 273 278 280 282 283 284 283 280 278 281 285 288 286 285 288
272 270 268 265 258 252 248 246 244 243 242 245 248 247 246 250 253 253 255 252 246 240 237 236 235 231 229 227 220 213 213 214 217 223 225 222 221 221 219 219 221 223 223 223 225 228 230 230 231 232 234 236 238 240 243 248 253 258 265 274 278 278 279 282 282 280 278 278 281 285 286 284 285 288
272 272 272 272 268 261 254 247 244 243 241 241 244 246 246 247 247 248 251 252 248 243 239 236 235 230 225 222 218 215 215 216 219 222 219 216 217 219 219 218 219 221 223 225 227 230 232 232 233 235 236 239 243 246 248 251 253 257 264 271 275 275 276 279 279 277 276 277 281 285 285 284 286 290
269 270 271 272 272 270 264 256 249 245 244 243 242 243 244 246 246 246 248 252 253 249 244 240 235 230 223 216 212 213 214 213 217 221 219 217 218 219 219 219 219 219 221 224 227 229 231 233 237 239 240 242 246 250 250 251 253 257 262 268 271 272 275 277 276 274 274 277 282 284 284 285 286 292
269 268 268 268 268 269 269 266 259 251 248 247 246 243 242 243 244 244 246 250 253 252 246 239 234 231 225 215 209 210 214 215 217 218 217 218 223 225 224 224 225 224 223 222 224 228 231 233 235 238 240 243 245 247 249 251 253 256 260 264 267 269 272 272 271 271 274 278 282 283 283 285 289 296
270 269 269 268 266 264 264 266 266 261 254 251 251 250 245 242 241 242 244 245 247 250 250 243 237 234 231 224 215 213 216 218 216 215 215 218 223 227 228 230 232 232 228 223 224 227 230 232 234 236 238 240 241 243 245 248 251 254 255 258 263 267 268 267 268 271 275 280 282 282 283 286 292 301
268 267 267 268 267 266 262 259 261 264 262 256 255 257 254 248 243 242 244 243 243 245 248 248 246 241 237 234 226 218 217 221 223 222 219 219 223 228 230 231 232 233 232 228 226 227 231 232 232 234 236 237 238 240 244 247 249 250 250 253 259 263 265 267 269 272 276 280 280 280 284 291 298 306
268 266 265 265 265 265 263 258 253 253 257 257 256 257 258 256 251 247 245 243 241 241 242 246 250 249 246 243 235 226 223 227 231 231 227 225 227 227 225 224 227 229 231 229 226 228 233 234 232 233 235 235 236 241 243 244 246 247 250 255 260 261 262 264 266 269 273 274 276 282 288 295 303 311
270 268 265 264 262 262 262 261 253 246 244 245 246 248 252 254 253 252 251 248 244 241 240 242 247 250 252 247 237 230 230 229 228 225 222 220 221 219 216 217 221 226 228 228 227 228 233 235 234 234 234 233 236 241 243 244 246 250 255 259 260 259 257 259 261 265 269 271 278 286 292 300 309 316
271 269 265 261 260 259 259 260 258 252 245 238 237 240 245 249 250 252 255 255 251 246 242 243 244 245 249 248 237 230 229 229 224 217 212 214 216 214 212 213 218 224 226 225 225 225 230 235 234 231 230 231 233 237 241 246 249 251 257 260 258 255 253 255 259 261 266 275 284 291 297 307 313 315
271 269 265 261 259 258 258 258 260 258 251 242 236 238 245 250 249 249 253 255 255 252 247 245 244 241 242 244 241 234 229 228 227 221 218 221 219 214 213 215 217 220 223 224 221 219 224 232 231 222 217 222 230 234 238 244 245 246 255 258 255 253 251 251 254 260 270 281 287 293 303 311 313 316
271 269 266 262 258 258 258 258 258 257 255 247 239 237 245 252 251 249 254 255 255 254 251 247 241 236 235 237 239 237 231 230 231 229 227 228 224 217 216 216 214 214 219 223 220 215 219 226 223 212 205 210 219 226 232 238 240 241 247 251 250 247 243 242 249 263 277 285 289 298 310 317 320 323
271 269 266 263 260 259 259 259 258 259 258 252 242 235 238 245 246 247 255 257 254 253 253 250 243 235 232 233 235 235 231 229 231 230 228 229 229 223 218 217 219 221 225 227 220 214 218 223 215 205 205 212 216 218 224 232 236 233 232 239 245 240 234 240 257 275 285 290 298 308 316 322 325 326
271 268 266 264 262 260 259 259 259 260 260 258 249 236 231 233 235 240 254 262 256 252 252 248 241 234 231 230 231 231 230 229 229 229 228 228 229 227 223 222 225 226 228 230 222 214 216 217 207 199 203 213 221 221 219 223 229 233 229 229 235 237 239 253 276 287 290 296 304 308 311 317 324 328
271 268 266 265 263 261 259 258 258 258 260 263 256 238 228 227 229 235 248 264 260 252 249 243 235 230 229 228 227 227 228 226 226 227 227 225 223 225 228 230 232 232 230 228 219 214 217 215 205 199 202 206 214 222 220 214 216 221 224 227 233 239 254 275 285 286 289 292 295 298 302 311 322 329
271 269 266 264 262 260 258 257 256 255 257 261 258 243 230 225 227 234 245 257 257 249 245 239 231 226 227 226 224 224 224 222 221 222 222 220 220 222 226 228 233 238 235 225 214 215 221 218 205 202 203 201 201 211 218 216 213 212 214 224 238 250 267 280 282 287 293 287 285 291 298 305 316 324
269 268 265 263 261 258 257 256 254 252 252 254 257 252 234 224 225 234 242 248 248 242 236 232 226 222 223 223 220 218 218 217 218 219 218 218 219 221 222 224 225 225 223 218 211 211 216 214 205 202 204 199 196 205 212 212 215 213 204 202 219 241 260 267 268 275 277 269 270 280 286 294 306 312
264 264 263 262 261 256 253 254 252 248 247 248 250 250 238 226 226 232 238 241 239 235 231 226 221 220 222 221 217 217 217 217 219 220 218 217 217 217 217 219 218 214 209 206 204 204 207 208 203 200 197 191 192 208 210 200 201 203 194 191 198 211 229 239 250 259 251 250 263 277 285 296 309 307
260 261 260 259 257 251 247 248 247 245 246 248 247 245 239 231 229 232 235 235 232 230 227 222 218 218 219 219 217 218 218 218 219 219 217 216 216 215 216 215 208 200 194 193 197 198 200 201 197 189 181 177 186 205 208 197 193 187 185 190 190 196 219 232 243 247 243 256 274 286 298 318 321 313
262 264 262 257 252 246 243 242 243 241 243 246 246 243 238 231 229 230 232 233 233 231 226 218 214 215 217 216 215 215 215 216 216 217 216 215 213 212 212 208 197 185 181 185 191 192 193 194 189 178 172 178 188 195 195 195 191 182 183 196 204 209 218 226 234 242 250 268 284 291 299 302 294 309
268 270 265 256 248 242 239 240 240 239 240 244 246 242 233 226 225 227 231 231 228 223 219 213 211 211 212 212 212 212 213 214 214 213 212 210 207 205 204 201 194 186 180 181 186 189 188 186 180 173 177 185 189 188 186 185 187 188 195 209 218 217 215 217 224 237 257 278 288 286 272 280 305 339
278 278 264 246 238 234 235 239 240 238 241 249 249 238 225 218 219 222 225 221 214 210 211 211 209 206 207 209 210 210 210 210 209 208 207 205 203 201 200 197 193 186 179 178 181 184 182 180 178 179 184 189 190 192 191 186 183 189 203 214 215 204 208 221 230 244 267 285 288 276 284 321 10 334
276 269 249 232 229 229 231 235 237 237 243 250 246 231 217 213 215 218 221 218 212 209 210 210 207 205 207 208 209 208 207 204 202 201 201 202 201 199 197 191 184 180 178 176 176 178 177 177 181 186 191 195 198 201 201 197 192 190 198 206 201 191 205 225 241 260 280 292 287 298 326 1 4 288
265 247 232 225 226 227 228 231 235 239 244 244 235 221 210 207 212 216 217 214 210 208 207 205 204 206 209 210 209 207 203 200 196 193 194 195 195 194 192 187 180 178 178 174 172 173 174 175 182 188 192 196 199 197 194 194 195 195 199 201 196 200 216 236 256 273 282 281 284 304 317 317 301 296
253 235 228 229 229 228 229 233 238 241 240 233 224 215 205 202 206 212 214 210 206 204 203 201 201 205 210 210 206 201 199 196 191 187 186 188 186 184 184 180 175 172 171 168 164 166 170 174 181 186 186 185 184 183 183 186 191 199 208 214 215 222 236 253 268 265 240 223 260 286 299 304 310 315
240 233 233 235 236 236 236 237 236 232 227 221 217 212 207 202 202 204 207 206 204 202 202 202 203 206 209 206 200 195 194 192 188 183 180 179 178 176 173 170 166 164 161 158 157 162 169 174 179 186 188 184 182 182 183 186 192 204 221 232 237 242 249 253 246 227 220 238 262 292 311 313 319 325
233 230 231 232 233 233 233 232 228 222 218 215 210 205 203 201 200 198 198 198 198 199 200 201 204 206 206 203 198 192 188 185 182 178 176 174 174 172 167 162 160 157 151 148 151 156 162 166 171 178 183 184 186 187 187 188 194 207 224 234 240 248 250 249 247 240 241 257 290 322 325 319 325 331
250 236 231 230 229 225 223 222 219 215 213 211 206 201 199 199 199 198 195 193 194 196 198 200 202 203 201 198 195 191 186 182 178 174 171 169 168 165 161 157 153 149 144 143 147 151 156 162 169 175 182 191 196 195 191 191 194 199 204 212 228 247 252 253 259 257 260 288 317 330 330 331 335 337
298 270 250 239 234 228 222 218 214 211 208 206 204 202 202 201 199 198 198 196 194 194 196 196 196 195 193 190 188 184 180 177 174 168 163 162 162 161 158 153 148 146 146 147 151 158 164 170 177 182 188 195 194 183 178 184 185 179 183 198 221 260 258 221 241 278 309 325 328 341 351 351 349 349
332 300 273 256 244 235 229 224 218 212 207 204 202 202 202 200 196 195 196 197 195 194 194 193 189 187 185 182 179 176 171 168 165 161 158 159 161 162 159 152 147 150 154 157 160 167 171 176 181 183 183 185 181 174 176 180 171 162 167 177 155 46 58 85 76 44 22 16 12 9 2 357 356 358
353 326 289 265 248 234 227 223 219 212 206 201 198 196 195 193 189 187 188 190 190 190 188 185 182 179 176 172 170 168 165 161 157 156 157 160 161 160 158 154 153 157 162 163 164 168 172 175 177 177 174 172 170 168 167 162 153 149 143 111 86 75 76 82 80 67 51 40 27 14 5 0 2 3
6 354 312 231 219 211 206 204 204 202 199 195 190 186 185 183 181 180 181 181 181 181 178 174 172 170 166 164 163 162 160 156 154 154 157 160 159 157 156 157 158 161 162 161 158 160 162 164 166 169 170 168 165 162 158 152 149 151 140 85 73 80 86 88 85 68 48 34 21 11 6 4 6 7
38 57 116 146 166 178 181 183 185 185 184 183 180 177 175 173 171 172 172 172 171 169 166 163 162 161 159 159 160 159 156 155 155 155 158 160 159 157 158 160 160 158 157 154 151 152 155 156 158 164 168 167 166 165 165 164 165 164 152 94 81 88 80 74 75 66 48 30 15 8 6 5 6 7
58 83 115 131 143 152 159 166 170 170 170 170 170 168 167 164 162 160 161 161 161 160 159 157 157 156 157 158 158 156 155 155 156 158 160 162 161 159 160 160 157 154 153 151 149 150 152 154 155 158 159 158 158 163 167 166 157 145 130 116 111 102 80 70 68 61 50 35 17 8 6 4 4 7